User: anonymous   Login
Location: Unspecified
(0.0000°N, 0.0000°E)
Time: 17:03:09
(UTC+00:00)
Language:

STSS DEMO 1 (USA 208) - Orbit

View from above orbital plane
View from above orbital plane
View from above satellite
View from above satellite

Ground track
Ground track

The orbit data is extracted from the following two-line orbital elements,

1 35937U 09052A   17256.85242715 0.00000020  00000-0  88460-4 0    03
2 35937  57.9849 143.9641 0017503  39.5451 320.4549 12.79326273    01
Epoch (UTC): 13 September 2017 20:27:29
Eccentricity: 0.0017503
inclination: 57.9849°
perigee height: 1330 km
apogee height: 1357 km
right ascension of ascending node: 143.9641°
argument of perigee: 39.5451°
revolutions per day: 12.79326273
mean anomaly at epoch: 320.4549°
orbit number at epoch: 0

The dashed part of the orbit path shows where the satellite is in the earth's shadow,  

DLR